Wind_Speed
15 2 9 12 18 21 20 25 13 26 20 24 12 9 10 11 12 12 10 9 10 11 11 15 14 12 12 10 9 8 6 4 2 2 0 2 3 5 6 9 9 11 12 16
12 12 9 4 11 25 26 24 22 28 30 6 2 6 9 14 15 14 14 14 14 13 13 15 16 16 13 12 10 9 7 5 4 4 2 2 5 6 8 10 13 16 16 19
8 6 6 4 22 19 14 20 18 22 26 6 8 13 16 17 16 16 15 14 12 9 10 15 14 14 12 9 7 7 6 5 6 11 11 10 10 11 12 14 15 18 19 22
5 4 14 18 9 18 21 21 20 20 23 13 15 16 15 19 21 17 17 17 16 13 14 12 11 9 10 8 8 8 8 8 7 6 6 7 9 12 15 17 18 20 21 22
6 10 17 14 9 9 14 25 20 25 24 16 8 11 6 12 13 15 16 12 16 19 16 14 12 9 8 8 7 5 5 5 7 9 10 11 12 14 15 17 18 22 26 26
4 8 10 8 7 10 8 20 16 19 22 14 15 11 9 16 14 13 15 16 17 19 19 15 8 3 4 5 6 7 6 7 9 11 12 14 15 18 18 19 22 21 24 28
10 7 6 7 4 9 11 5 11 18 15 17 16 16 11 15 14 16 19 19 19 15 13 12 12 9 8 7 5 5 7 9 12 13 14 16 18 19 20 21 23 25 25 26
6 8 15 11 10 18 7 2 7 9 13 19 8 9 18 18 17 15 16 17 17 15 16 16 12 10 7 5 6 8 10 12 14 15 17 18 20 22 23 23 23 25 24 29
10 7 2 15 8 6 4 5 5 11 10 12 10 7 12 13 16 15 17 20 19 17 15 13 11 8 6 5 7 11 14 15 16 17 19 19 20 23 20 14 15 19 19 21
4 7 6 10 1 2 4 3 4 6 13 16 11 12 10 15 15 14 18 17 16 15 12 10 7 3 4 8 10 12 14 15 17 18 19 20 18 18 18 17 16 18 18 22
4 2 2 7 9 6 5 4 6 7 8 13 15 14 16 14 14 13 15 15 14 13 9 6 4 5 7 9 10 12 11 13 15 15 16 18 18 18 20 21 20 21 21 21
8 6 2 2 7 9 9 10 12 13 10 11 15 15 15 12 11 14 14 14 12 9 7 4 4 7 8 9 9 9 12 13 13 15 17 17 18 22 20 22 24 27 31 32
3 4 5 1 1 6 8 12 11 11 13 14 11 13 12 9 10 13 12 12 10 8 4 3 5 6 8 10 11 14 15 17 17 17 18 20 20 21 25 26 25 26 29 32
3 6 2 5 4 7 8 10 10 10 10 11 12 12 11 10 11 12 12 10 8 5 4 4 5 7 10 11 12 14 16 19 20 21 21 21 21 23 24 25 25 24 24 27
3 2 2 6 9 8 10 11 11 11 10 9 10 11 14 12 11 12 11 9 6 3 3 4 7 10 10 11 13 15 18 20 20 21 21 23 25 25 27 27 28 29 26 24
6 5 6 7 9 10 10 8 11 8 8 6 9 9 11 12 13 12 10 7 5 4 5 8 10 11 11 11 13 17 18 20 23 22 23 24 25 26 26 27 27 26 25 25
3 2 2 3 4 6 9 11 12 13 9 9 9 14 14 13 12 10 8 7 6 6 7 8 12 11 11 15 19 19 19 19 21 23 24 26 26 25 27 26 25 25 26 27
4 3 3 3 6 7 6 7 6 9 10 13 17 17 13 11 9 10 10 9 7 7 8 8 8 11 15 17 17 20 20 21 22 23 25 26 26 28 28 25 26 26 26 26
6 7 5 4 4 6 6 7 7 10 14 18 17 11 14 14 13 12 11 9 6 6 7 5 9 13 16 17 19 20 21 22 22 24 26 27 26 25 24 24 24 24 24 24
4 4 5 5 4 4 5 5 13 12 15 19 17 15 10 12 11 12 9 7 7 3 5 9 10 13 15 17 19 21 23 23 24 24 24 25 24 22 21 22 23 23 23 22
4 4 6 7 6 6 7 13 13 9 16 21 17 13 13 14 12 10 6 3 1 3 8 10 12 14 15 19 21 22 22 23 23 24 24 23 23 21 20 20 20 20 21 22
2 2 5 5 5 3 6 12 13 16 16 16 15 16 13 11 10 6 4 3 3 4 9 12 13 16 18 22 20 20 21 22 23 24 22 21 21 20 19 19 19 19 18 18
3 1 2 4 5 7 11 12 16 16 14 13 13 13 12 9 9 6 3 6 4 7 10 13 15 16 18 18 18 19 21 21 22 22 21 21 20 20 19 19 18 18 17 18
2 2 3 6 9 10 9 11 13 11 11 11 10 12 12 9 7 7 5 4 4 7 9 11 12 14 15 16 16 17 19 19 20 21 21 20 17 19 19 18 17 15 14 14
4 5 7 7 6 6 8 11 10 11 11 10 11 12 13 11 8 7 7 6 5 7 8 9 10 10 13 14 15 15 17 18 21 21 19 18 19 18 17 16 14 11 11 9
5 5 8 11 8 8 9 12 8 11 11 9 10 12 12 14 11 9 8 7 6 6 6 6 8 8 10 13 15 15 16 18 20 20 20 20 19 17 15 13 12 10 7 5
8 7 7 7 10 10 11 12 11 11 14 13 12 14 17 16 13 11 10 9 7 4 5 4 6 8 9 11 13 14 15 16 18 19 19 20 19 19 18 17 16 16 13 10
Wind_Direction
223 75 181 203 193 198 198 218 205 248 234 256 255 221 201 173 159 152 150 154 146 134 130 127 119 115 121 129 131 138 143 132 134 139 184 244 306 318 309 288 281 281 277 270
228 220 218 221 218 219 213 222 232 249 261 258 264 147 177 190 173 168 165 157 147 135 132 132 131 131 135 137 132 135 128 129 138 160 125 2 340 317 301 306 302 299 292 284
229 175 160 229 231 231 225 232 231 234 249 203 220 206 192 186 181 169 157 144 136 132 131 129 129 132 129 121 104 93 83 50 24 13 4 347 325 315 316 316 307 301 296 293
222 98 242 247 253 238 235 235 233 255 259 238 232 210 200 188 172 165 159 159 147 146 138 119 112 93 83 72 61 40 28 16 11 1 330 321 320 311 310 308 299 290 288 289
207 234 261 293 237 204 199 245 230 240 249 238 200 152 193 180 176 164 160 153 144 133 125 115 104 95 75 47 27 360 336 316 311 312 307 308 315 311 306 301 295 291 291 277
133 229 238 245 228 203 190 257 209 218 231 193 154 207 210 174 153 144 143 144 117 113 110 101 93 115 199 228 250 266 285 295 298 303 304 309 307 308 300 293 287 282 281 282
207 224 254 225 202 143 183 263 204 204 212 177 194 216 140 144 145 149 146 139 132 135 144 175 188 195 206 215 236 270 288 297 300 304 307 304 305 300 298 296 290 282 279 284
200 221 248 154 172 200 212 230 192 196 184 192 174 126 149 159 155 153 148 153 153 162 186 189 191 185 196 238 270 282 292 300 297 299 302 302 299 298 297 296 289 285 279 275
192 206 170 189 205 188 181 182 201 184 177 171 138 147 148 154 155 164 158 168 171 172 167 167 176 190 211 261 293 298 301 301 300 300 303 303 301 298 296 289 280 275 264 262
132 214 211 206 190 204 202 220 177 170 164 165 147 147 146 158 161 158 160 155 158 158 161 167 177 199 281 287 286 287 289 296 305 303 299 299 296 295 293 286 275 269 265 263
253 262 293 231 219 187 188 173 135 138 154 158 147 161 152 153 153 155 147 147 157 164 166 165 196 254 276 270 275 284 293 298 301 302 304 301 294 291 282 275 262 267 265 263
214 168 146 219 179 182 178 176 159 143 135 149 146 146 146 144 145 148 150 152 151 155 167 188 238 264 271 280 290 296 294 295 292 289 290 288 287 288 275 276 282 277 273 269
176 163 165 156 258 208 188 165 161 150 148 143 146 139 140 139 147 140 144 155 165 164 169 206 255 264 274 284 280 281 278 284 286 284 282 281 282 288 298 299 292 287 283 272
215 137 135 180 204 159 143 141 131 126 133 138 134 126 126 135 140 154 159 155 151 165 202 229 245 255 276 283 274 274 280 280 278 280 283 286 286 286 285 285 288 282 275 278
148 263 243 122 121 112 123 126 128 132 131 125 135 143 149 155 160 158 148 153 164 181 235 263 263 268 280 280 274 279 287 288 286 285 285 285 283 279 277 276 277 279 281 275
55 70 112 131 133 134 136 142 141 153 155 138 149 159 150 141 143 148 151 156 164 221 254 260 269 283 293 292 291 289 286 289 287 285 285 280 274 272 273 272 270 272 273 272
121 104 91 107 155 167 179 178 178 180 170 167 159 144 140 138 142 153 166 180 200 236 254 269 289 303 305 310 300 294 292 291 287 280 275 269 269 269 269 268 268 266 266 265
268 293 232 175 183 190 182 183 160 160 177 171 148 141 142 152 164 172 181 187 209 246 272 291 303 311 307 303 299 295 291 286 280 274 274 273 269 267 268 269 269 266 268 265
227 235 248 241 207 200 193 185 180 164 142 147 146 163 164 164 166 172 174 185 213 246 280 296 318 315 310 302 298 294 288 285 284 282 276 273 272 271 273 271 269 266 264 263
270 230 213 224 229 204 214 188 162 156 164 157 147 143 151 160 175 176 179 203 231 265 315 327 326 317 303 301 305 302 298 292 286 284 282 280 275 276 278 276 268 264 258 257
262 241 223 206 200 196 193 183 162 157 161 162 155 160 165 172 173 173 180 199 226 319 324 328 318 309 312 317 313 304 298 293 289 288 285 284 279 277 284 283 282 272 265 251
312 190 212 191 161 141 162 155 144 133 141 150 158 162 161 162 171 189 205 193 227 298 315 319 315 321 325 322 312 306 307 302 295 294 289 286 285 284 284 283 278 275 269 261
300 263 159 164 161 156 144 143 143 145 157 162 169 175 180 177 177 168 211 216 245 301 311 318 323 327 329 322 317 314 314 311 306 304 301 298 296 297 296 296 292 290 278 265
232 175 136 135 133 147 152 157 159 160 162 169 178 183 176 174 192 211 219 224 264 287 303 317 324 329 332 331 323 321 323 320 320 321 315 311 313 317 315 314 315 318 309 292
208 177 162 164 173 187 165 167 160 167 175 184 189 197 204 205 195 190 194 215 241 274 294 315 323 325 338 341 335 333 334 335 342 342 339 343 347 344 338 330 321 317 313 304
237 212 206 205 206 195 188 178 195 189 178 189 200 201 208 196 192 194 205 219 237 269 295 317 327 329 339 345 349 345 348 354 358 358 2 2 5 2 359 353 348 354 359 356
257 237 226 220 223 217 203 193 196 200 197 199 205 200 191 190 193 200 210 213 220 251 310 318 340 343 342 345 351 359 360 3 10 10 11 11 13 14 16 20 24 22 25 27
Height
690 698 694 694 701 708 715 703 719 691 702 682 691 702 704 709 719 724 729 732 731 731 734 738 743 749 752 755 757 761 763 765 767 767 768 769 769 769 768 770 769 769 767 769
696 695 698 705 701 691 691 693 696 688 679 682 700 702 710 712 714 717 722 725 729 733 737 741 744 748 755 758 759 761 763 765 765 766 766 766 765 766 766 766 765 764 760 764
696 691 705 718 694 689 690 685 686 694 666 687 695 697 700 708 711 714 720 725 732 740 743 744 749 752 754 756 758 758 761 763 762 759 759 762 763 762 759 757 759 758 757 759
694 707 704 671 671 672 678 676 678 677 670 676 677 682 688 693 697 709 715 721 721 732 741 745 748 752 751 753 753 755 755 756 757 757 759 758 755 755 756 755 754 754 753 755
691 691 680 680 674 678 675 664 663 662 662 668 680 688 695 696 698 704 710 718 721 726 734 739 744 748 752 754 755 756 757 758 757 759 757 755 752 753 752 751 752 750 749 750
705 694 680 657 661 663 667 665 647 654 653 669 679 684 675 691 699 708 716 723 721 727 732 739 745 749 753 754 754 755 755 754 756 756 754 750 751 749 747 748 747 745 744 742
689 684 677 659 667 665 678 652 642 643 644 660 664 651 671 689 697 703 710 717 721 726 732 739 743 747 750 750 751 752 752 751 752 751 750 749 746 744 742 740 740 736 736 734
682 677 667 654 666 658 645 651 646 646 649 653 658 667 672 683 694 699 703 715 719 726 732 736 740 745 746 747 747 747 746 746 746 745 744 743 742 739 738 736 732 729 728 727
652 648 642 644 639 640 648 646 648 646 651 655 667 673 679 685 693 701 704 713 718 724 729 734 737 739 742 743 745 745 745 744 744 742 741 740 738 736 734 732 728 724 723 721
648 635 639 643 647 648 649 647 647 644 647 654 666 676 681 687 694 699 706 711 718 723 728 733 735 737 738 739 741 742 742 742 740 738 737 736 734 731 727 725 722 720 718 717
641 644 646 644 647 649 651 649 648 649 651 656 662 671 675 685 691 698 703 709 715 721 727 730 732 735 737 738 738 738 736 736 734 733 730 728 728 725 724 721 719 716 712 709
622 632 633 635 641 644 646 647 648 649 657 660 661 668 674 683 690 696 702 709 714 719 725 729 732 733 735 736 735 734 734 734 732 732 729 724 722 717 716 712 709 708 705 703
627 630 633 637 642 644 644 646 649 651 655 661 666 670 676 684 691 696 702 708 714 719 724 727 731 731 731 731 731 730 731 729 727 725 723 721 717 711 701 695 697 695 694 693
634 634 635 636 636 641 643 647 651 654 660 665 670 675 681 688 694 698 702 708 713 718 722 724 725 726 727 728 727 726 726 723 720 717 714 710 707 704 701 695 687 685 685 683
632 633 632 634 638 642 646 650 655 659 662 668 673 677 683 689 694 698 703 707 712 716 718 721 724 724 723 724 723 721 720 718 714 709 705 704 701 697 695 689 685 679 675 672
636 636 637 637 639 644 648 654 657 662 666 669 672 678 681 687 694 699 702 706 710 714 715 719 720 718 717 717 716 713 711 708 708 702 698 697 695 691 685 681 676 672 668 664
637 641 642 644 645 647 647 648 652 657 663 666 670 676 682 688 694 698 702 705 709 712 714 714 712 713 711 711 713 710 703 698 699 696 693 690 685 680 676 672 666 662 658 656
638 640 640 639 642 646 649 649 653 658 661 665 670 675 682 687 691 697 700 704 707 711 710 709 708 708 709 706 703 704 699 695 692 689 684 679 674 671 666 661 656 651 647 646
639 640 640 641 642 644 646 648 652 657 661 664 670 676 681 687 691 695 698 701 703 706 706 705 703 702 702 701 700 698 693 688 683 678 674 669 665 660 655 650 646 642 639 638
638 640 638 639 642 644 645 646 650 655 660 664 668 675 682 686 690 693 695 696 697 698 699 699 699 700 699 697 693 690 684 679 674 670 665 660 654 649 645 641 638 634 631 628
640 639 637 638 639 640 642 647 650 652 656 664 667 673 675 682 686 689 692 692 692 693 696 697 698 696 693 689 685 681 677 672 667 661 656 650 645 641 636 632 628 624 621 618
639 639 640 638 636 641 643 645 650 653 659 664 668 673 675 679 683 686 686 688 691 693 694 693 691 688 685 683 679 675 670 665 659 654 648 643 638 632 627 623 618 615 612 610
639 637 637 637 635 640 644 647 650 656 662 664 667 670 672 675 678 682 685 686 687 688 688 687 686 684 682 678 674 670 665 659 653 648 642 636 631 626 621 616 612 608 606 605
640 638 636 636 640 644 645 648 652 656 659 661 664 667 670 674 678 678 680 681 683 685 685 685 683 681 679 675 671 666 660 655 649 642 636 631 626 621 616 612 608 605 602 600
638 638 639 640 641 643 646 650 652 655 658 661 663 666 667 670 672 674 677 679 681 682 682 681 680 678 675 672 668 663 658 652 646 641 635 629 624 619 616 612 608 604 601 598
639 637 638 639 639 641 643 646 649 652 654 657 660 662 665 667 669 672 675 676 678 679 678 678 676 674 672 669 665 661 657 651 646 641 636 631 626 621 617 613 608 604 601 598
637 637 637 638 638 639 641 642 645 647 649 653 655 658 661 664 667 670 672 673 675 675 675 674 673 671 669 667 664 660 656 652 647 643 638 634 629 625 620 615 610 606 602 600